Location: Fernhill
(41.0167°S, 175.6333°E)
Time: 09:57:51
(UTC+00:00)

Cosmos 1346 Rocket - Pass Details

Date: 08 November 2025
Orbit: 479 x 490 km, 81.2° (Epoch: 11 December)

Event Time Altitude Azimuth Distance (km) Brightness Sun altitude
Exits shadow 09:29:19 46° 138° (SE) 681 3.3 -22.4°
Drops below altitude 10° 09:32:10 10° 164° (SSE) 1,712 5.7 -22.7°
Sets 09:34:18 0° 167° (SSE) 2,600 6.8 -23.0°
